,,Stat5,,Stat1,,Stat2,,Stat3,,Stat4,,Wind1,,Wind1,
time,status,PA1M_AVG,status,PR1M_SUM,status,RH1M_AVG,status,SR1M_AVG,status,TA1M_AVG,status,W1dAve1m,status,W1sAve1m,
2000-04-22, 00:00:00,VALID,917.628,VALID,0,VALID,100,VALID,-0.118866,VALID,19.6031,VALID,148,VALID,0.205273,
2000-04-22, 00:01:00,VALID,917.613,VALID,0,VALID,100,VALID,-0.118866,VALID,19.5904,VALID,175,VALID,0.222656,
2000-04-22, 00:02:01,VALID,917.585,VALID,0,VALID,100,VALID,-0.0849042,VALID,19.5705,VALID,179,VALID,0.147436,
2000-04-22, 00:03:00,VALID,917.564,VALID,0,VALID,100,VALID,-0.0849042,VALID,19.5608,VALID,181,VALID,0,
2000-04-22, 00:04:01,VALID,917.549,VALID,0,VALID,100,VALID,-0.0679233,VALID,19.5447,VALID,181,VALID,0,
2000-04-22, 00:05:00,VALID,917.529,VALID,0,VALID,100,VALID,-0.0849042,VALID,19.5218,VALID,168,VALID,0,
2000-04-22, 00:06:00,VALID,917.507,VALID,0,VALID,100,VALID,-0.0679233,VALID,19.5054,VALID,168,VALID,0,
2000-04-22, 00:07:00,VALID,917.514,VALID,0,VALID,100,VALID,-0.0169808,VALID,19.5047,VALID,168,VALID,0,
2000-04-22, 00:08:00,VALID,917.51,VALID,0,VALID,100,VALID,-0.0169808,VALID,19.5017,VALID,153,VALID,0,
2000-04-22, 00:09:00,VALID,917.498,VALID,0,VALID,100,VALID,-0.0169808,VALID,19.5178,VALID,138,VALID,0.477965,
2000-04-22, 00:10:00,VALID,917.498,VALID,0,VALID,100,VALID,-0.0339617,VALID,19.5178,VALID,135,VALID,0.499155,
2000-04-22, 00:11:01,VALID,917.466,VALID,0,VALID,100,VALID,0,VALID,19.5211,VALID,136,VALID,0.547286,
2000-04-22, 00:12:00,VALID,917.453,VALID,0,VALID,100,VALID,-0.0169808,VALID,19.5211,VALID,147,VALID,0.788218,
2000-04-22, 00:13:00,VALID,917.438,VALID,0,VALID,100,VALID,-0.0509425,VALID,19.5054,VALID,148,VALID,0.697151,
2000-04-22, 00:14:01,VALID,917.414,VALID,0,VALID,100,VALID,-0.0169808,VALID,19.5154,VALID,160,VALID,0.630907,
2000-04-22, 00:15:01,VALID,916.973,VALID,0,VALID,100,VALID,-0.0169808,VALID,19.4826,VALID,155,VALID,0.639824,
2000-04-22, 00:16:00,VALID,917.384,VALID,0,VALID,100,VALID,-0.0339617,VALID,19.4694,VALID,147,VALID,0.467949,
2000-04-22, 00:17:00,VALID,917.355,VALID,0,VALID,100,VALID,0,VALID,19.4632,VALID,139,VALID,0.639803,
2000-04-22, 00:18:01,VALID,917.317,VALID,0,VALID,100,VALID,-0.0339617,VALID,19.4572,VALID,142,VALID,0.505285,
2000-04-22, 00:19:00,VALID,917.283,VALID,0,VALID,100,VALID,-0.0169808,VALID,19.447,VALID,133,VALID,0.607639,
2000-04-22, 00:20:00,VALID,917.238,VALID,0,VALID,100,VALID,-0.0169808,VALID,19.4468,VALID,121,VALID,0.687263,
2000-04-22, 00:21:00,VALID,917.225,VALID,0,VALID,100,VALID,-0.0169808,VALID,19.4406,VALID,119,VALID,0.47424,
2000-04-22, 00:22:00,VALID,917.194,VALID,0,VALID,100,VALID,0.0849042,VALID,19.4262,VALID,103,VALID,0.258502,
2000-04-22, 00:23:00,VALID,917.194,VALID,0,VALID,100,VALID,0.0679233,VALID,19.4262,VALID,104,VALID,0.268792,
2000-04-22, 00:24:00,VALID,917.179,VALID,0,VALID,100,VALID,0.0849042,VALID,19.4356,VALID,107,VALID,0.262336,
2000-04-22, 00:25:00,VALID,917.163,VALID,0,VALID,100,VALID,0.0679233,VALID,19.4555,VALID,107,VALID,0.0421464,
2000-04-22, 00:26:00,VALID,917.151,VALID,0,VALID,100,VALID,0.0849042,VALID,19.4617,VALID,107,VALID,0,
2000-04-22, 00:27:01,VALID,917.154,VALID,0,VALID,100,VALID,0.0849042,VALID,19.4553,VALID,122,VALID,0,
2000-04-22, 00:28:01,VALID,917.145,VALID,0,VALID,100,VALID,0.0509425,VALID,19.4458,VALID,138,VALID,0,
2000-04-22, 00:29:00,VALID,917.153,VALID,0,VALID,100,VALID,0.0849042,VALID,19.4433,VALID,154,VALID,0,
2000-04-22, 00:30:00,VALID,917.142,VALID,0,VALID,100,VALID,0.101885,VALID,19.4267,VALID,224,VALID,0,
2000-04-22, 00:31:00,VALID,917.138,VALID,0,VALID,100,VALID,0.0849042,VALID,19.4001,VALID,232,VALID,0,
2000-04-22, 00:32:00,VALID,917.123,VALID,0,VALID,100,VALID,0.0679233,VALID,19.4011,VALID,230,VALID,0,
2000-04-22, 00:33:00,VALID,917.108,VALID,0,VALID,100,VALID,0.0679233,VALID,19.3812,VALID,223,VALID,0,
2000-04-22, 00:34:00,VALID,917.093,VALID,0,VALID,100,VALID,0,VALID,19.3815,VALID,223,VALID,0,
2000-04-22, 00:35:00,VALID,917.076,VALID,0,VALID,100,VALID,0.0849042,VALID,19.3718,VALID,223,VALID,0,
2000-04-22, 00:36:00,VALID,917.066,VALID,0,VALID,100,VALID,0.101885,VALID,19.3847,VALID,223,VALID,0,
2000-04-22, 00:37:00,VALID,917.054,VALID,0,VALID,100,VALID,-0.0509425,VALID,19.3961,VALID,223,VALID,0,
2000-04-22, 00:38:00,VALID,917.021,VALID,0,VALID,100,VALID,-0.0509425,VALID,19.3859,VALID,223,VALID,0,
2000-04-22, 00:39:01,VALID,917.005,VALID,0,VALID,100,VALID,-0.0339617,VALID,19.3859,VALID,223,VALID,0,
2000-04-22, 00:40:01,VALID,916.965,VALID,0,VALID,100,VALID,-0.0169808,VALID,19.3862,VALID,223,VALID,0,
2000-04-22, 00:41:00,VALID,916.935,VALID,0,VALID,100,VALID,-0.0339617,VALID,19.3894,VALID,226,VALID,0,
2000-04-22, 00:42:00,VALID,916.911,VALID,0,VALID,100,VALID,-0.0169808,VALID,19.37,VALID,297,VALID,0,
2000-04-22, 00:43:00,VALID,916.893,VALID,0,VALID,100,VALID,-0.0169808,VALID,19.3735,VALID,330,VALID,0,
2000-04-22, 00:44:00,VALID,916.87,VALID,0,VALID,100,VALID,-0.0339617,VALID,19.3735,VALID,317,VALID,0,
2000-04-22, 00:45:00,VALID,916.856,VALID,0,VALID,100,VALID,0,VALID,19.3663,VALID,317,VALID,0,
2000-04-22, 00:46:00,VALID,916.828,VALID,0,VALID,100,VALID,-0.0339617,VALID,19.3862,VALID,317,VALID,0,
2000-04-22, 00:47:00,VALID,916.81,VALID,0,VALID,100,VALID,0,VALID,19.3566,VALID,317,VALID,0,
2000-04-22, 00:48:00,VALID,916.791,VALID,0,VALID,100,VALID,-0.0509425,VALID,19.3603,VALID,317,VALID,0,
2000-04-22, 00:49:00,VALID,916.771,VALID,0,VALID,100,VALID,-0.0509425,VALID,19.3469,VALID,317,VALID,0,
2000-04-22, 00:50:00,VALID,916.772,VALID,0,VALID,100,VALID,0,VALID,19.3541,VALID,317,VALID,0,
2000-04-22, 00:51:01,VALID,916.757,VALID,0,VALID,100,VALID,-0.0339617,VALID,19.3732,VALID,317,VALID,0,
2000-04-22, 00:52:01,VALID,916.737,VALID,0.2,VALID,100,VALID,-0.0339617,VALID,19.3797,VALID,317,VALID,0,
2000-04-22, 00:53:00,VALID,916.711,VALID,0,VALID,100,VALID,-0.0509425,VALID,19.3735,VALID,317,VALID,0,
2000-04-22, 00:54:00,VALID,916.677,VALID,0,VALID,100,VALID,-0.0509425,VALID,19.3675,VALID,317,VALID,0,
2000-04-22, 00:55:00,VALID,916.647,VALID,0,VALID,100,VALID,-0.0339617,VALID,19.3675,VALID,329,VALID,0,
2000-04-22, 00:56:00,VALID,916.613,VALID,0,VALID,100,VALID,-0.0169808,VALID,19.3804,VALID,19,VALID,0,
2000-04-22, 00:57:00,VALID,916.586,VALID,0,VALID,100,VALID,-0.0169808,VALID,19.3673,VALID,99,VALID,0,
2000-04-22, 00:58:00,VALID,916.573,VALID,0,VALID,100,VALID,-0.0509425,VALID,19.3442,VALID,99,VALID,0,
2000-04-22, 00:59:00,VALID,916.545,VALID,0,VALID,100,VALID,-0.0509425,VALID,19.3387,VALID,99,VALID,0,
2000-04-22, 01:00:00,VALID,916.521,VALID,0,VALID,100,VALID,-0.0679233,VALID,19.3451,VALID,99,VALID,0,
2000-04-22, 01:01:00,VALID,916.51,VALID,0,VALID,100,VALID,-0.0509425,VALID,19.3454,VALID,99,VALID,0,
2000-04-22, 01:02:00,VALID,916.504,VALID,0,VALID,100,VALID,-0.0679233,VALID,19.3258,VALID,88,VALID,0.470536,
2000-04-22, 01:03:01,VALID,916.489,VALID,0,VALID,100,VALID,-0.0679233,VALID,19.3329,VALID,74,VALID,0.591427,
2000-04-22, 01:04:01,VALID,916.487,VALID,0,VALID,100,VALID,-0.0509425,VALID,19.3096,VALID,93,VALID,0.365809,
2000-04-22, 01:05:00,VALID,916.475,VALID,0,VALID,100,VALID,-0.0169808,VALID,19.3029,VALID,100,VALID,0.208826,
2000-04-22, 01:06:00,VALID,916.458,VALID,0,VALID,100,VALID,-0.0169808,VALID,19.2964,VALID,102,VALID,0.555664,
2000-04-22, 01:07:00,VALID,916.44,VALID,0,VALID,100,VALID,0.0339617,VALID,19.286,VALID,108,VALID,0.679487,
2000-04-22, 01:08:00,VALID,916.43,VALID,0,VALID,100,VALID,0.0339617,VALID,19.2761,VALID,107,VALID,0.838616,
2000-04-22, 01:09:00,VALID,916.415,VALID,0,VALID,100,VALID,0.0679233,VALID,19.2853,VALID,122,VALID,0.617821,
2000-04-22, 01:10:00,VALID,916.39,VALID,0,VALID,100,VALID,0.0849042,VALID,19.2853,VALID,111,VALID,1.00138,
2000-04-22, 01:11:00,VALID,916.356,VALID,0,VALID,100,VALID,0.0849042,VALID,19.2818,VALID,114,VALID,0.97065,
2000-04-22, 01:12:00,VALID,916.33,VALID,0,VALID,100,VALID,0.0849042,VALID,19.2687,VALID,111,VALID,0.911184,
2000-04-22, 01:13:00,VALID,916.302,VALID,0,VALID,100,VALID,0.0339617,VALID,19.2662,VALID,106,VALID,0.933799,
2000-04-22, 01:14:00,VALID,916.291,VALID,0,VALID,100,VALID,0.0509425,VALID,19.2495,VALID,115,VALID,0.782366,
2000-04-22, 01:15:01,VALID,916.272,VALID,0,VALID,100,VALID,0.0849042,VALID,19.2662,VALID,121,VALID,0.605574,
2000-04-22, 01:16:01,VALID,916.247,VALID,0,VALID,100,VALID,0.0509425,VALID,19.2664,VALID,133,VALID,0.754825,
2000-04-22, 01:17:00,VALID,916.224,VALID,0,VALID,100,VALID,0.0509425,VALID,19.2532,VALID,108,VALID,0.983319,
2000-04-22, 01:18:00,VALID,916.221,VALID,0,VALID,100,VALID,0.0679233,VALID,19.25,VALID,112,VALID,0.929199,
2000-04-22, 01:19:01,VALID,916.229,VALID,0,VALID,100,VALID,0.0509425,VALID,19.2463,VALID,131,VALID,0.876803,
2000-04-22, 01:20:00,VALID,916.225,VALID,0,VALID,100,VALID,0.101885,VALID,19.2304,VALID,145,VALID,0.873214,
2000-04-22, 01:21:01,VALID,916.218,VALID,0,VALID,100,VALID,0.0339617,VALID,19.2267,VALID,145,VALID,0.833615,
2000-04-22, 01:22:00,VALID,916.209,VALID,0,VALID,100,VALID,-0.0169808,VALID,19.2187,VALID,152,VALID,0.900276,
2000-04-22, 01:23:00,VALID,916.193,VALID,0,VALID,100,VALID,-0.0339617,VALID,19.2157,VALID,171,VALID,0.749155,
2000-04-22, 01:24:00,VALID,916.177,VALID,0,VALID,100,VALID,0,VALID,19.2023,VALID,174,VALID,0.717722,
2000-04-22, 01:25:01,VALID,916.158,VALID,0,VALID,100,VALID,-0.0509425,VALID,19.1896,VALID,172,VALID,0.820724,
2000-04-22, 01:26:00,VALID,916.139,VALID,0,VALID,100,VALID,-0.0169808,VALID,19.1866,VALID,162,VALID,0.789509,
2000-04-22, 01:27:01,VALID,916.132,VALID,0,VALID,100,VALID,0,VALID,19.1901,VALID,160,VALID,0.65435,
2000-04-22, 01:28:01,VALID,916.115,VALID,0,VALID,100,VALID,-0.0169808,VALID,19.1802,VALID,163,VALID,0.527114,
2000-04-22, 01:29:00,VALID,916.094,VALID,0,VALID,100,VALID,-0.0169808,VALID,19.1705,VALID,182,VALID,0.31989,
2000-04-22, 01:30:00,VALID,916.096,VALID,0,VALID,100,VALID,-0.0339617,VALID,19.167,VALID,185,VALID,0.363037,
2000-04-22, 01:31:01,VALID,916.093,VALID,0,VALID,100,VALID,-0.0509425,VALID,19.1707,VALID,182,VALID,0.388221,
2000-04-22, 01:32:01,VALID,916.075,VALID,0,VALID,100,VALID,-0.0509425,VALID,19.1608,VALID,185,VALID,0.387723,
2000-04-22, 01:33:01,VALID,916.057,VALID,0,VALID,100,VALID,0,VALID,19.1506,VALID,187,VALID,0.531883,
2000-04-22, 01:34:01,VALID,916.042,VALID,0,VALID,100,VALID,-0.0339617,VALID,19.1541,VALID,180,VALID,0.336397,
2000-04-22, 01:35:00,VALID,916.027,VALID,0,VALID,100,VALID,-0.0339617,VALID,19.1578,VALID,158,VALID,0.508657,
2000-04-22, 01:36:00,VALID,916.022,VALID,0,VALID,100,VALID,-0.0169808,VALID,19.1677,VALID,152,VALID,0.155222,
2000-04-22, 01:37:01,VALID,916.016,VALID,0,VALID,100,VALID,0,VALID,19.1633,VALID,152,VALID,0,
2000-04-22, 01:38:01,VALID,916.021,VALID,0,VALID,100,VALID,0.0849042,VALID,19.1591,VALID,152,VALID,0,
2000-04-22, 01:39:01,VALID,916.017,VALID,0,VALID,100,VALID,0.0679233,VALID,19.1656,VALID,151,VALID,0,
2000-04-22, 01:40:01,VALID,916.016,VALID,0,VALID,100,VALID,0.0169808,VALID,19.1626,VALID,152,VALID,0,
2000-04-22, 01:41:01,VALID,916.008,VALID,0,VALID,100,VALID,0.0509425,VALID,19.1497,VALID,140,VALID,0.121199,
2000-04-22, 01:42:01,VALID,915.998,VALID,0,VALID,100,VALID,0.101885,VALID,19.1467,VALID,124,VALID,0.514404,
2000-04-22, 01:43:01,VALID,915.972,VALID,0,VALID,100,VALID,0.0509425,VALID,19.1471,VALID,100,VALID,0.53145,
2000-04-22, 01:44:01,VALID,915.968,VALID,0,VALID,100,VALID,0.0849042,VALID,19.1464,VALID,95,VALID,0.612277,
2000-04-22, 01:45:01,VALID,915.946,VALID,0,VALID,100,VALID,0.0849042,VALID,19.1497,VALID,94,VALID,0.589527,
2000-04-22, 01:46:01,VALID,915.954,VALID,0,VALID,100,VALID,0.0679233,VALID,19.1531,VALID,92,VALID,0.335018,
2000-04-22, 01:47:01,VALID,915.938,VALID,0,VALID,100,VALID,0.0509425,VALID,19.14,VALID,92,VALID,0.234164,
2000-04-22, 01:48:01,VALID,915.937,VALID,0,VALID,100,VALID,0.0679233,VALID,19.1404,VALID,92,VALID,0.10773,
2000-04-22, 01:49:01,VALID,915.938,VALID,0,VALID,100,VALID,0.0339617,VALID,19.1499,VALID,92,VALID,0.00308388,
2000-04-22, 01:50:01,VALID,915.927,VALID,0,VALID,100,VALID,0.0339617,VALID,19.1534,VALID,92,VALID,0,
2000-04-22, 01:51:01,VALID,915.929,VALID,0,VALID,100,VALID,0.0169808,VALID,19.1504,VALID,92,VALID,0,
2000-04-22, 01:52:01,VALID,915.944,VALID,0,VALID,100,VALID,-0.0679233,VALID,19.1315,VALID,92,VALID,0,
2000-04-22, 01:53:01,VALID,915.947,VALID,0,VALID,100,VALID,-0.0509425,VALID,19.1419,VALID,92,VALID,0,
2000-04-22, 01:54:01,VALID,915.948,VALID,0,VALID,100,VALID,-0.0339617,VALID,19.122,VALID,118,VALID,0,
2000-04-22, 01:55:01,VALID,915.963,VALID,0,VALID,100,VALID,-0.0509425,VALID,19.1163,VALID,122,VALID,0,
2000-04-22, 01:56:01,VALID,915.977,VALID,0,VALID,100,VALID,-0.0679233,VALID,19.0897,VALID,142,VALID,0,
2000-04-22, 01:57:01,VALID,915.994,VALID,0,VALID,100,VALID,-0.0339617,VALID,19.0706,VALID,144,VALID,0,
2000-04-22, 01:58:00,VALID,916.002,VALID,0,VALID,100,VALID,-0.0509425,VALID,19.0736,VALID,144,VALID,0,
2000-04-22, 01:59:00,VALID,915.993,VALID,0,VALID,100,VALID,-0.0169808,VALID,19.0574,VALID,144,VALID,0,
2000-04-22, 02:00:00,VALID,915.978,VALID,0,VALID,100,VALID,0,VALID,19.0475,VALID,144,VALID,0,
2000-04-22, 02:01:00,VALID,915.974,VALID,0,VALID,100,VALID,-0.0509425,VALID,19.051,VALID,144,VALID,0,
2000-04-22, 02:02:00,VALID,915.955,VALID,0,VALID,100,VALID,-0.0509425,VALID,19.0671,VALID,144,VALID,0.0649554,
2000-04-22, 02:03:00,VALID,915.935,VALID,0,VALID,100,VALID,-0.0849042,VALID,19.0909,VALID,141,VALID,0.532728,
2000-04-22, 02:04:00,VALID,915.92,VALID,0,VALID,100,VALID,-0.0339617,VALID,19.0542,VALID,134,VALID,0.594899,
2000-04-22, 02:05:00,VALID,915.902,VALID,0,VALID,100,VALID,-0.0169808,VALID,19.041,VALID,133,VALID,0.61022,
2000-04-22, 02:06:00,VALID,915.896,VALID,0,VALID,100,VALID,-0.0509425,VALID,19.0318,VALID,132,VALID,0.494141,
2000-04-22, 02:07:00,VALID,915.894,VALID,0,VALID,100,VALID,-0.0849042,VALID,19.009,VALID,134,VALID,0.389824,
2000-04-22, 02:08:00,VALID,915.897,VALID,0,VALID,100,VALID,-0.101885,VALID,18.9928,VALID,141,VALID,0.479241,
2000-04-22, 02:09:00,VALID,915.912,VALID,0,VALID,100,VALID,-0.0339617,VALID,18.9804,VALID,161,VALID,0.717905,
2000-04-22, 02:10:00,VALID,915.909,VALID,0,VALID,100,VALID,-0.0849042,VALID,18.9483,VALID,153,VALID,0.797794,
2000-04-22, 02:11:00,VALID,915.924,VALID,0,VALID,100,VALID,-0.0509425,VALID,18.9056,VALID,166,VALID,0.979096,
2000-04-22, 02:12:00,VALID,915.931,VALID,0,VALID,100,VALID,-0.0509425,VALID,18.8701,VALID,167,VALID,1.13507,
2000-04-22, 02:13:00,VALID,915.95,VALID,0,VALID,100,VALID,-0.0509425,VALID,18.8579,VALID,166,VALID,0.882401,
2000-04-22, 02:14:00,VALID,915.958,VALID,0,VALID,100,VALID,-0.0509425,VALID,18.8445,VALID,155,VALID,0.654464,
2000-04-22, 02:15:00,VALID,915.968,VALID,0,VALID,100,VALID,-0.0849042,VALID,18.8572,VALID,141,VALID,0.543708,
2000-04-22, 02:16:00,VALID,915.973,VALID,0,VALID,100,VALID,-0.0679233,VALID,18.8708,VALID,137,VALID,0.957721,
2000-04-22, 02:17:00,VALID,915.972,VALID,0,VALID,100,VALID,-0.101885,VALID,18.8607,VALID,149,VALID,0.961993,
2000-04-22, 02:18:00,VALID,915.966,VALID,0,VALID,100,VALID,-0.0679233,VALID,18.8775,VALID,168,VALID,0.80835,
2000-04-22, 02:19:00,VALID,915.972,VALID,0,VALID,100,VALID,-0.0509425,VALID,18.8542,VALID,169,VALID,0.657051,
2000-04-22, 02:20:00,VALID,915.952,VALID,0,VALID,100,VALID,-0.0509425,VALID,18.8607,VALID,170,VALID,0.883259,
2000-04-22, 02:21:00,VALID,915.956,VALID,0,VALID,100,VALID,-0.0339617,VALID,18.8708,VALID,164,VALID,0.578336,
2000-04-22, 02:22:00,VALID,915.961,VALID,0,VALID,100,VALID,0.0509425,VALID,18.8791,VALID,160,VALID,0.670267,
2000-04-22, 02:23:00,VALID,915.96,VALID,0,VALID,100,VALID,0.0679233,VALID,18.8657,VALID,163,VALID,0.692356,
2000-04-22, 02:24:00,VALID,915.946,VALID,0,VALID,100,VALID,0.0169808,VALID,18.8659,VALID,168,VALID,0.968544,
2000-04-22, 02:25:00,VALID,915.914,VALID,0,VALID,100,VALID,0.0679233,VALID,18.8627,VALID,163,VALID,0.689762,
2000-04-22, 02:26:00,VALID,915.915,VALID,0,VALID,100,VALID,0.0849042,VALID,18.8729,VALID,162,VALID,0.607589,
2000-04-22, 02:27:00,VALID,915.898,VALID,0,VALID,100,VALID,0.0169808,VALID,18.8788,VALID,158,VALID,0.534628,
2000-04-22, 02:28:00,VALID,915.903,VALID,0,VALID,100,VALID,0.0679233,VALID,18.8726,VALID,155,VALID,0.348805,
2000-04-22, 02:29:00,VALID,915.901,VALID,0,VALID,100,VALID,0,VALID,18.8761,VALID,155,VALID,0.194468,
2000-04-22, 02:30:00,VALID,915.927,VALID,0,VALID,100,VALID,0.0849042,VALID,18.8692,VALID,155,VALID,0.000976563,
2000-04-22, 02:31:00,VALID,915.925,VALID,0,VALID,100,VALID,0.0509425,VALID,18.8694,VALID,155,VALID,0,
2000-04-22, 02:32:00,VALID,915.933,VALID,0,VALID,100,VALID,0.0169808,VALID,18.8759,VALID,155,VALID,0,
2000-04-22, 02:33:00,VALID,915.938,VALID,0,VALID,100,VALID,0.0169808,VALID,18.8659,VALID,155,VALID,0,
2000-04-22, 02:34:00,VALID,915.943,VALID,0,VALID,100,VALID,0,VALID,18.8689,VALID,155,VALID,0,
2000-04-22, 02:35:00,VALID,915.94,VALID,0,VALID,100,VALID,0.0679233,VALID,18.8722,VALID,155,VALID,0,
2000-04-22, 02:36:00,VALID,915.944,VALID,0,VALID,100,VALID,0.0679233,VALID,18.8851,VALID,155,VALID,0,
2000-04-22, 02:37:00,VALID,915.928,VALID,0,VALID,100,VALID,-0.0169808,VALID,18.9091,VALID,127,VALID,0.227179,
2000-04-22, 02:38:00,VALID,915.905,VALID,0,VALID,100,VALID,-0.0679233,VALID,18.9257,VALID,113,VALID,0.496205,
2000-04-22, 02:39:00,VALID,915.895,VALID,0,VALID,100,VALID,-0.0849042,VALID,18.9133,VALID,113,VALID,0.53125,
2000-04-22, 02:40:00,VALID,915.879,VALID,0,VALID,100,VALID,-0.0339617,VALID,18.8967,VALID,113,VALID,0.335938,
2000-04-22, 02:41:00,VALID,915.876,VALID,0,VALID,100,VALID,-0.0679233,VALID,18.8902,VALID,113,VALID,0.0143581,
2000-04-22, 02:42:00,VALID,915.872,VALID,0,VALID,100,VALID,-0.0849042,VALID,18.88,VALID,113,VALID,0,
2000-04-22, 02:43:00,VALID,915.867,VALID,0,VALID,100,VALID,-0.0679233,VALID,18.8641,VALID,113,VALID,0,
2000-04-22, 02:44:00,VALID,915.858,VALID,0,VALID,100,VALID,-0.0509425,VALID,18.8512,VALID,113,VALID,0.0779018,
2000-04-22, 02:45:00,VALID,915.849,VALID,0,VALID,100,VALID,-0.0679233,VALID,18.845,VALID,113,VALID,0.414696,
2000-04-22, 02:46:00,VALID,915.839,VALID,0,VALID,100,VALID,-0.0679233,VALID,18.8251,VALID,113,VALID,0.0682445,
2000-04-22, 02:47:00,VALID,915.837,VALID,0,VALID,100,VALID,-0.0679233,VALID,18.8256,VALID,112,VALID,0.243666,
2000-04-22, 02:48:00,VALID,915.818,VALID,0,VALID,100,VALID,-0.0509425,VALID,18.8318,VALID,112,VALID,0.217516,
2000-04-22, 02:49:00,VALID,915.823,VALID,0,VALID,100,VALID,-0.0679233,VALID,18.8217,VALID,112,VALID,0.0162418,
2000-04-22, 02:50:00,VALID,915.819,VALID,0,VALID,100,VALID,-0.0849042,VALID,18.8355,VALID,112,VALID,0.217187,
2000-04-22, 02:51:00,VALID,915.804,VALID,0,VALID,100,VALID,-0.0509425,VALID,18.8378,VALID,112,VALID,0,
2000-04-22, 02:52:00,VALID,915.805,VALID,0,VALID,100,VALID,-0.0679233,VALID,18.8648,VALID,105,VALID,0,
2000-04-22, 02:53:00,VALID,915.804,VALID,0,VALID,100,VALID,-0.101885,VALID,18.8586,VALID,105,VALID,0,
2000-04-22, 02:54:00,VALID,915.804,VALID,0,VALID,100,VALID,-0.0849042,VALID,18.8485,VALID,105,VALID,0,
2000-04-22, 02:55:00,VALID,915.808,VALID,0,VALID,100,VALID,-0.0509425,VALID,18.8487,VALID,107,VALID,0,
2000-04-22, 02:56:00,VALID,915.832,VALID,0,VALID,100,VALID,-0.0849042,VALID,18.8323,VALID,119,VALID,0.3125,
2000-04-22, 02:57:00,VALID,915.836,VALID,0,VALID,100,VALID,-0.101885,VALID,18.8258,VALID,131,VALID,0.745355,
2000-04-22, 02:58:00,VALID,915.85,VALID,0,VALID,100,VALID,-0.0849042,VALID,18.8164,VALID,139,VALID,0.792969,
2000-04-22, 02:59:00,VALID,915.863,VALID,0,VALID,100,VALID,-0.0339617,VALID,18.8132,VALID,149,VALID,0.876478,
2000-04-22, 03:00:00,VALID,915.857,VALID,0,VALID,100,VALID,-0.101885,VALID,18.7901,VALID,148,VALID,0.57134,
2000-04-22, 03:01:00,VALID,915.866,VALID,0,VALID,100,VALID,-0.101885,VALID,18.7908,VALID,172,VALID,0.485814,
2000-04-22, 03:02:00,VALID,915.874,VALID,0,VALID,100,VALID,-0.0849042,VALID,18.7645,VALID,213,VALID,0.562723,
2000-04-22, 03:03:00,VALID,915.876,VALID,0,VALID,100,VALID,-0.101885,VALID,18.7714,VALID,227,VALID,0.785895,
2000-04-22, 03:04:00,VALID,915.872,VALID,0,VALID,100,VALID,-0.0849042,VALID,18.7878,VALID,217,VALID,0.845588,
2000-04-22, 03:05:00,VALID,915.871,VALID,0,VALID,100,VALID,-0.101885,VALID,18.7933,VALID,228,VALID,1.00802,
2000-04-22, 03:06:00,VALID,915.863,VALID,0,VALID,100,VALID,-0.0509425,VALID,18.8586,VALID,225,VALID,1.05786,
2000-04-22, 03:07:00,VALID,915.859,VALID,0,VALID,100,VALID,-0.0169808,VALID,18.8895,VALID,221,VALID,0.856971,
2000-04-22, 03:08:00,VALID,915.868,VALID,0,VALID,100,VALID,0,VALID,18.9026,VALID,203,VALID,0.471205,
2000-04-22, 03:09:00,VALID,915.863,VALID,0,VALID,100,VALID,0.0169808,VALID,18.8925,VALID,217,VALID,0.828336,
2000-04-22, 03:10:00,VALID,915.861,VALID,0,VALID,100,VALID,0,VALID,18.9248,VALID,217,VALID,0.787054,
2000-04-22, 03:11:00,VALID,915.861,VALID,0,VALID,100,VALID,0.0509425,VALID,18.9278,VALID,219,VALID,0.59185,
2000-04-22, 03:12:00,VALID,915.86,VALID,0,VALID,100,VALID,0.0339617,VALID,18.9442,VALID,218,VALID,0.444901,
2000-04-22, 03:13:00,VALID,915.861,VALID,0,VALID,100,VALID,0.0339617,VALID,18.9372,VALID,218,VALID,0,
2000-04-22, 03:14:00,VALID,915.858,VALID,0,VALID,100,VALID,0,VALID,18.9476,VALID,218,VALID,0,
2000-04-22, 03:15:00,VALID,915.849,VALID,0,VALID,100,VALID,0.0169808,VALID,18.9372,VALID,218,VALID,0,
2000-04-22, 03:16:00,VALID,915.851,VALID,0,VALID,100,VALID,0.0679233,VALID,18.9407,VALID,165,VALID,0,
2000-04-22, 03:17:00,VALID,915.834,VALID,0,VALID,100,VALID,0.0339617,VALID,18.934,VALID,151,VALID,0,
2000-04-22, 03:18:00,VALID,915.806,VALID,0,VALID,100,VALID,0.0509425,VALID,18.9248,VALID,116,VALID,0,
2000-04-22, 03:19:00,VALID,915.784,VALID,0,VALID,100,VALID,0.0849042,VALID,18.8828,VALID,111,VALID,0,
2000-04-22, 03:20:00,VALID,915.779,VALID,0,VALID,100,VALID,0.0169808,VALID,18.8408,VALID,119,VALID,0,
2000-04-22, 03:21:00,VALID,915.791,VALID,0,VALID,100,VALID,0.0679233,VALID,18.8244,VALID,114,VALID,0,
2000-04-22, 03:22:00,VALID,915.801,VALID,0,VALID,100,VALID,-0.0849042,VALID,18.8191,VALID,113,VALID,0,
2000-04-22, 03:23:00,VALID,915.815,VALID,0,VALID,100,VALID,-0.0849042,VALID,18.8035,VALID,112,VALID,0,
2000-04-22, 03:24:00,VALID,915.835,VALID,0,VALID,100,VALID,-0.0679233,VALID,18.7774,VALID,107,VALID,0,
2000-04-22, 03:25:00,VALID,915.837,VALID,0,VALID,100,VALID,-0.0509425,VALID,18.7449,VALID,107,VALID,0,
2000-04-22, 03:26:00,VALID,915.838,VALID,0,VALID,100,VALID,-0.0509425,VALID,18.729,VALID,113,VALID,0,
2000-04-22, 03:27:00,VALID,915.836,VALID,0,VALID,100,VALID,-0.0679233,VALID,18.7034,VALID,113,VALID,0,
2000-04-22, 03:28:00,VALID,915.843,VALID,0,VALID,100,VALID,-0.0849042,VALID,18.684,VALID,113,VALID,0,
2000-04-22, 03:29:00,VALID,915.844,VALID,0,VALID,100,VALID,-0.0509425,VALID,18.6678,VALID,120,VALID,0,
2000-04-22, 03:30:00,VALID,915.856,VALID,0,VALID,100,VALID,-0.0169808,VALID,18.6611,VALID,121,VALID,0,
2000-04-22, 03:31:00,VALID,915.88,VALID,0,VALID,100,VALID,-0.0679233,VALID,18.6415,VALID,121,VALID,0,
2000-04-22, 03:32:00,VALID,915.888,VALID,0,VALID,100,VALID,-0.0339617,VALID,18.6251,VALID,121,VALID,0,
2000-04-22, 03:33:00,VALID,915.902,VALID,0,VALID,100,VALID,-0.0849042,VALID,18.6286,VALID,121,VALID,0,
2000-04-22, 03:34:00,VALID,915.894,VALID,0,VALID,100,VALID,-0.0849042,VALID,18.639,VALID,121,VALID,0,
2000-04-22, 03:35:00,VALID,915.905,VALID,0,VALID,100,VALID,-0.0509425,VALID,18.6452,VALID,22,VALID,0,
2000-04-22, 03:36:00,VALID,915.927,VALID,0,VALID,100,VALID,-0.0679233,VALID,18.6455,VALID,314,VALID,0,
2000-04-22, 03:37:00,VALID,915.929,VALID,0,VALID,100,VALID,0,VALID,18.6346,VALID,314,VALID,0,
2000-04-22, 03:38:00,VALID,915.928,VALID,0,VALID,100,VALID,0.0169808,VALID,18.6406,VALID,326,VALID,0,
2000-04-22, 03:39:00,VALID,915.928,VALID,0,VALID,100,VALID,0.0169808,VALID,18.6572,VALID,347,VALID,0,
2000-04-22, 03:40:00,VALID,915.921,VALID,0,VALID,100,VALID,0,VALID,18.6863,VALID,342,VALID,0,
2000-04-22, 03:41:00,VALID,915.928,VALID,0,VALID,100,VALID,0.0339617,VALID,18.7312,VALID,331,VALID,0.34185,
2000-04-22, 03:42:00,VALID,915.942,VALID,0,VALID,100,VALID,0.0339617,VALID,18.7598,VALID,21,VALID,0.340576,